Wetbulb
51.57 51.45 51.13 50.39 50.07 50.12 49.44 49.00 49.26 49.23 49.58 50.14 50.55 50.61 50.41 50.19 50.71 50.80 50.51 55.81 56.97 56.41 57.00 57.60 58.09 58.38 58.71 59.35 61.40 62.69 64.76 68.07 68.62 69.01 68.59 68.02 68.00 67.82 67.53 67.86 67.70 67.59 67.62
50.57 50.16 49.75 49.42 48.92 49.07 48.97 48.72 48.42 48.26 48.18 49.17 48.76 49.48 49.73 49.83 49.89 50.27 50.51 50.83 56.12 57.25 56.80 56.70 57.01 57.54 57.94 58.12 58.82 60.69 62.16 64.08 67.07 68.14 68.49 67.65 67.20 67.45 67.07 67.14 67.10 67.12 67.44
49.57 49.50 48.96 48.83 48.02 48.57 48.44 48.25 47.98 47.72 47.39 47.98 47.49 48.08 48.15 47.82 48.66 49.21 49.99 50.11 51.21 55.44 57.25 56.86 55.96 56.24 57.21 58.21 57.72 58.28 60.23 61.09 63.41 66.42 67.66 67.93 67.17 66.83 66.83 66.65 66.72 66.81 67.03
48.75 48.71 47.72 47.73 47.89 47.78 47.83 47.00 46.57 45.67 45.74 45.74 45.39 45.26 45.32 46.85 48.28 48.35 49.26 50.23 50.61 52.07 53.49 53.24 53.72 53.89 55.07 57.19 58.81 59.21 57.98 60.21 61.41 64.63 66.26 66.84 67.56 67.08 66.39 66.43 66.48 66.52 66.63
48.61 47.61 47.31 47.39 47.28 47.07 46.84 45.99 45.29 45.03 43.86 43.80 43.66 44.02 45.05 44.59 45.77 49.14 49.92 49.13 48.26 49.70 49.07 50.81 51.29 50.84 52.06 54.45 56.96 59.01 60.43 58.36 60.61 62.07 64.85 66.44 66.73 67.10 66.63 66.36 66.39 66.30 66.34
47.45 46.66 46.86 46.36 46.30 45.96 45.15 44.51 43.64 44.13 43.65 42.66 42.96 43.67 42.42 44.81 47.37 44.45 45.87 48.30 47.79 47.95 46.65 45.69 45.77 47.58 50.08 52.88 55.33 58.29 60.85 60.33 58.97 60.89 63.70 66.02 66.78 66.32 66.42 66.05 66.27 66.21 66.25
46.39 45.46 44.76 45.11 45.20 44.41 44.32 43.51 42.52 40.95 41.24 41.67 39.33 38.31 42.07 43.79 41.00 40.20 45.26 45.23 44.52 45.90 45.23 44.32 44.96 47.18 48.24 50.42 52.29 54.43 57.09 59.04 60.56 60.73 61.24 64.69 66.46 65.68 65.92 65.99 65.88 65.99 66.01
45.15 44.53 43.76 43.68 44.24 43.34 43.09 42.39 40.46 38.76 39.73 39.85 36.10 36.32 34.22 39.00 37.88 38.59 41.54 42.99 41.65 42.19 42.80 43.95 45.30 46.54 47.54 46.72 47.73 50.82 52.13 54.42 57.01 60.77 62.11 62.56 65.05 65.59 65.60 66.08 65.76 65.63 65.63
44.33 43.65 43.46 43.09 42.92 42.62 40.77 40.71 39.38 38.15 35.93 37.10 38.00 34.04 31.26 30.33 32.74 37.61 38.48 39.14 39.55 38.83 40.85 42.41 44.93 46.93 45.89 45.39 46.23 47.11 48.56 50.09 54.33 57.19 61.92 63.47 64.57 65.39 65.25 65.56 65.66 65.41 65.54
42.74 42.61 42.78 42.36 41.94 41.74 40.35 39.67 39.80 37.88 36.68 33.52 35.23 36.48 36.04 34.60 31.24 29.68 35.26 36.32 36.68 37.38 38.38 43.02 44.67 45.97 44.71 44.19 45.04 45.79 46.57 47.91 51.57 55.43 58.31 61.56 63.20 64.50 65.39 65.30 65.32 65.56 65.43
41.90 41.20 41.44 41.24 40.57 40.54 39.98 39.24 38.16 38.09 36.54 33.60 32.35 33.66 33.72 33.89 34.84 31.63 28.10 31.16 34.27 36.38 38.90 42.27 45.46 43.88 43.46 43.02 43.04 43.43 44.51 45.87 49.68 55.57 58.37 59.80 62.69 63.17 64.51 65.05 65.05 65.21 65.54
41.13 39.91 40.88 39.95 39.92 39.26 38.66 38.37 38.44 37.86 36.29 33.44 32.97 33.41 32.79 31.73 31.21 31.59 29.89 30.34 31.20 34.14 37.76 44.64 44.15 43.15 42.05 41.32 42.66 42.61 42.57 43.51 46.17 50.17 52.28 55.23 59.19 61.42 63.23 63.47 64.52 65.18 64.79
40.29 38.22 38.67 38.49 38.06 38.36 38.33 38.04 38.08 36.72 36.17 33.57 32.05 32.79 34.28 34.15 34.53 33.41 31.98 30.76 30.78 33.67 38.15 43.51 43.64 42.46 41.72 40.05 39.65 41.05 41.93 41.58 42.81 45.39 47.97 50.43 52.09 54.69 57.59 60.24 63.33 63.78 64.38
38.24 38.26 37.79 38.06 37.81 37.73 37.05 37.08 37.04 35.26 35.54 34.90 31.98 32.81 33.73 34.12 34.56 34.33 33.06 31.86 29.78 32.43 35.30 37.83 41.39 39.40 39.99 39.68 38.81 38.82 38.33 39.63 39.95 41.69 43.35 45.80 47.23 48.64 50.55 52.47 56.49 59.54 60.99
38.29 37.33 37.23 37.05 36.56 36.36 36.19 36.38 35.29 33.56 34.33 33.89 32.93 31.18 32.64 33.25 34.66 35.12 34.96 34.61 33.15 29.72 30.45 37.75 36.24 38.24 38.49 38.25 37.09 35.91 35.40 38.43 38.22 38.87 39.78 41.46 43.20 44.15 45.41 47.03 49.44 52.11 55.61
37.38 36.87 36.42 35.74 35.51 35.35 35.22 34.80 33.75 33.28 32.95 32.26 32.20 30.82 30.33 32.39 32.80 33.99 33.68 34.97 35.03 33.12 29.78 35.65 35.01 35.73 36.07 36.48 36.92 34.79 34.45 35.75 36.60 36.35 36.93 37.97 39.20 40.74 41.45 41.97 43.51 45.32 48.55
36.92 35.75 35.58 34.89 34.35 34.45 33.83 32.93 32.30 32.17 31.46 30.52 30.53 29.79 29.09 30.74 30.23 31.90 32.96 33.50 34.14 33.38 31.09 34.43 34.81 34.95 34.48 32.90 32.70 33.51 35.30 32.25 32.94 35.03 35.02 35.28 36.12 37.00 37.97 38.87 38.68 39.63 41.36
36.36 35.49 35.05 34.54 34.07 33.40 32.83 31.74 30.89 31.38 29.81 29.06 28.87 27.89 27.07 28.92 27.10 30.07 30.61 30.77 32.54 34.80 33.20 31.78 32.10 33.38 32.01 33.79 31.35 30.35 31.68 33.79 31.21 33.51 33.51 33.57 34.08 34.64 35.12 35.72 36.78 36.88 36.96
34.96 34.42 33.86 32.97 32.70 32.37 31.40 31.33 30.99 30.36 29.01 28.68 27.91 26.89 25.34 25.25 23.97 26.47 27.67 27.55 30.87 33.95 34.49 31.85 30.86 32.94 32.88 33.06 32.75 30.66 29.57 30.08 31.04 30.95 31.44 31.34 32.44 32.90 33.51 33.74 34.31 35.03 36.02
34.77 33.88 33.31 32.76 32.19 31.15 31.45 31.03 31.21 30.32 29.41 28.23 28.69 26.93 25.65 24.13 22.59 22.83 24.25 24.29 28.09 31.05 31.23 30.21 29.13 28.28 29.80 31.98 32.58 30.43 27.67 28.50 28.10 29.28 28.84 28.30 29.22 30.24 31.15 31.97 32.36 32.97 33.59
34.64 34.70 34.02 33.46 30.91 27.99 28.22 28.60 29.97 29.14 28.85 28.46 27.93 26.29 26.30 26.79 27.89 26.19 23.45 22.02 23.21 25.09 26.43 25.49 25.42 24.69 23.91 24.46 27.25 29.59 29.59 28.46 28.71 28.93 27.12 25.53 25.23 25.74 26.92 29.26 30.71 31.52 31.37
32.42 32.27 32.78 30.84 27.93 27.23 28.60 30.50 30.26 27.87 27.73 27.39 26.39 24.79 24.58 25.57 26.75 26.70 26.07 26.04 24.33 21.18 19.84 19.98 18.98 19.17 20.10 21.73 24.84 26.45 25.29 25.93 26.34 27.54 27.98 24.68 25.45 24.06 25.60 27.06 29.88 30.12 30.38
30.73 29.67 29.24 27.93 25.36 24.12 28.27 29.57 30.14 27.66 25.41 23.83 24.46 24.54 23.67 23.96 24.86 24.85 25.43 24.48 24.20 24.59 23.44 20.46 17.81 18.25 19.50 21.84 23.40 25.61 24.07 22.48 21.56 23.11 25.41 25.11 28.15 24.22 25.53 27.37 29.63 29.64 29.55
28.41 28.49 27.68 27.17 25.53 24.04 27.82 28.81 28.72 27.88 23.30 21.50 20.13 19.10 18.53 17.44 20.18 23.33 23.42 22.19 20.84 20.47 20.93 22.35 18.15 17.40 20.94 22.16 22.77 26.24 26.63 24.54 23.43 23.04 20.60 21.90 26.37 24.38 25.67 26.07 29.62 29.58 29.41
28.51 27.93 28.45 27.20 24.98 22.93 26.45 26.11 28.49 26.69 22.95 19.02 17.86 17.09 15.98 14.35 23.61 25.33 16.32 14.38 15.18 15.98 25.38 27.08 26.70 25.87 24.88 24.78 24.00 21.91 21.88 22.70 21.42 15.12 18.70 19.51 21.39 25.88 24.04 21.47 25.71 28.19 29.00
28.31 28.48 28.55 29.10 28.15 22.44 25.57 25.48 26.61 28.72 26.75 25.11 22.43 19.70 22.74 18.81 23.16 23.51 17.61 16.17 13.69 12.98 16.06 16.82 17.92 19.83 21.13 21.39 23.36 18.92 18.57 17.88 15.10 12.29 15.54 16.64 18.58 22.04 23.49 23.31 21.57 23.15 23.77
MSLP
1018.12 1017.95 1018.04 1018.18 1018.45 1018.61 1018.70 1018.58 1018.48 1018.28 1018.04 1017.73 1017.49 1017.15 1016.95 1016.67 1016.43 1016.22 1015.96 1015.64 1015.36 1015.18 1014.89 1014.63 1014.43 1014.24 1014.10 1013.97 1013.74 1013.53 1013.19 1012.72 1012.54 1012.46 1012.58 1012.89 1013.21 1013.57 1014.00 1014.67 1015.05 1015.32 1015.82
1018.40 1018.18 1018.32 1018.47 1018.83 1018.72 1018.68 1018.59 1018.58 1018.38 1018.23 1017.86 1017.50 1017.08 1016.76 1016.43 1016.13 1015.91 1015.69 1015.56 1015.24 1014.96 1014.70 1014.40 1014.15 1013.90 1013.66 1013.46 1013.31 1013.08 1012.78 1012.56 1012.08 1011.86 1011.80 1011.93 1012.23 1012.65 1013.09 1013.62 1014.20 1014.73 1015.15
1018.66 1018.35 1018.48 1018.74 1019.09 1018.90 1018.75 1018.75 1018.71 1018.60 1018.40 1018.04 1017.62 1017.15 1016.82 1016.58 1016.10 1015.62 1015.28 1015.11 1014.82 1014.58 1014.51 1014.51 1014.60 1014.33 1013.93 1013.18 1012.77 1012.54 1012.17 1012.02 1011.68 1011.23 1011.04 1011.09 1011.24 1011.50 1011.97 1012.50 1013.07 1013.87 1014.28
1018.93 1018.56 1018.76 1019.16 1019.41 1019.08 1019.06 1019.20 1019.23 1019.10 1018.83 1018.36 1017.82 1017.31 1017.00 1016.48 1015.89 1015.57 1015.02 1014.56 1014.40 1014.30 1014.47 1014.75 1014.72 1014.59 1014.04 1013.07 1012.46 1011.94 1011.54 1011.09 1011.01 1010.52 1010.23 1010.15 1010.22 1010.44 1010.79 1011.36 1011.96 1012.55 1013.41
1018.97 1018.76 1019.05 1019.45 1019.54 1019.23 1019.38 1019.68 1019.65 1019.53 1019.20 1018.60 1018.18 1017.48 1016.76 1016.43 1015.86 1015.21 1014.84 1014.75 1014.60 1014.66 1014.75 1014.89 1015.18 1014.88 1014.18 1013.30 1012.50 1011.61 1010.61 1010.05 1010.01 1009.79 1009.36 1009.08 1009.21 1009.30 1009.61 1010.00 1010.63 1011.38 1012.09
1018.97 1018.98 1019.12 1019.65 1019.65 1019.54 1019.95 1020.14 1020.15 1020.04 1019.62 1019.22 1018.59 1017.52 1016.70 1016.09 1015.60 1015.85 1015.49 1015.02 1015.36 1015.03 1015.33 1015.33 1015.67 1014.95 1014.20 1013.23 1012.33 1011.35 1009.61 1008.78 1008.82 1008.77 1008.48 1008.08 1008.02 1008.12 1008.65 1008.93 1009.11 1009.59 1010.57
1019.22 1019.34 1019.57 1019.85 1019.89 1020.09 1020.22 1020.49 1020.58 1020.63 1020.13 1019.92 1019.11 1018.02 1016.66 1016.11 1016.26 1016.61 1015.95 1016.01 1016.09 1015.77 1015.50 1015.76 1015.71 1014.89 1014.11 1013.47 1012.43 1011.44 1010.37 1009.17 1007.71 1007.53 1007.44 1007.18 1006.99 1007.14 1005.58 1007.97 1008.87 1008.80 1009.18
1019.46 1019.59 1019.99 1020.07 1020.28 1020.45 1020.60 1020.88 1021.23 1021.28 1020.89 1020.67 1020.61 1019.55 1018.38 1017.04 1016.80 1017.04 1016.91 1016.88 1016.81 1016.71 1016.07 1015.59 1015.36 1014.94 1014.26 1013.78 1012.80 1011.78 1010.64 1009.34 1008.36 1007.23 1006.41 1006.33 1006.09 1006.63 1006.77 1006.87 1007.51 1008.38 1008.06
1019.57 1019.98 1020.22 1020.38 1020.61 1020.62 1021.03 1021.36 1021.61 1021.75 1021.65 1021.49 1021.32 1021.53 1020.79 1020.33 1019.68 1018.02 1017.62 1017.49 1017.52 1017.23 1016.48 1015.92 1015.42 1015.13 1014.48 1014.00 1012.94 1011.78 1010.71 1009.40 1008.09 1007.12 1006.28 1005.63 1005.39 1005.53 1006.26 1006.68 1005.75 1007.26 1007.55
1019.80 1020.26 1020.40 1020.64 1020.90 1020.93 1021.45 1021.64 1021.84 1022.06 1022.09 1022.13 1022.11 1022.57 1022.67 1022.24 1021.39 1019.53 1018.67 1018.63 1018.51 1017.79 1017.10 1016.19 1015.54 1015.28 1014.84 1014.35 1013.53 1012.59 1011.15 1009.35 1007.72 1006.65 1006.06 1005.44 1005.02 1004.76 1004.70 1005.31 1005.66 1006.11 1006.79
1020.06 1020.40 1020.56 1020.79 1021.02 1021.28 1021.57 1021.88 1022.06 1022.22 1022.27 1022.79 1023.00 1022.99 1022.80 1022.46 1022.10 1021.84 1019.69 1019.22 1019.05 1018.12 1017.42 1016.51 1015.96 1015.78 1015.35 1014.86 1014.07 1013.22 1011.53 1009.67 1007.92 1006.47 1005.81 1005.34 1004.95 1004.51 1004.06 1004.07 1004.85 1005.56 1006.08
1020.16 1020.47 1020.66 1020.91 1021.10 1021.49 1021.84 1021.93 1022.00 1022.17 1022.46 1023.04 1023.18 1023.36 1023.03 1023.01 1022.54 1022.20 1021.40 1020.62 1019.66 1018.16 1017.38 1016.65 1016.45 1016.17 1015.92 1015.58 1014.83 1013.90 1012.47 1010.87 1009.53 1008.09 1007.05 1006.02 1005.12 1004.52 1004.07 1004.09 1004.31 1004.39 1004.98
1019.94 1020.68 1020.96 1021.24 1021.56 1021.61 1021.82 1022.03 1022.16 1022.22 1022.68 1022.80 1023.22 1023.27 1023.07 1022.85 1022.64 1022.53 1022.08 1021.07 1020.17 1018.86 1017.60 1017.02 1016.91 1016.79 1016.58 1016.43 1015.91 1014.77 1013.64 1012.41 1011.25 1009.56 1008.45 1007.14 1006.71 1005.43 1004.78 1004.43 1004.36 1004.61 1004.67
1020.04 1020.70 1021.08 1021.42 1021.80 1021.89 1022.01 1022.00 1022.20 1022.70 1022.65 1022.79 1023.04 1023.18 1023.16 1022.77 1022.69 1022.53 1022.21 1021.57 1020.25 1019.34 1018.47 1018.07 1017.73 1017.82 1017.46 1017.12 1016.87 1016.01 1014.97 1013.99 1012.84 1011.36 1010.47 1009.10 1008.39 1007.22 1006.43 1005.99 1005.43 1005.12 1005.11
1020.46 1021.00 1021.19 1021.71 1022.01 1022.17 1022.19 1022.01 1022.45 1022.85 1022.90 1022.93 1023.01 1023.11 1023.06 1022.85 1022.83 1022.57 1022.16 1021.78 1021.13 1020.02 1019.24 1018.55 1018.70 1018.70 1018.17 1017.87 1017.76 1017.11 1016.60 1015.68 1014.35 1013.10 1012.56 1011.12 1010.31 1009.45 1008.64 1007.88 1007.43 1007.21 1006.72
1020.77 1021.00 1021.43 1021.97 1022.39 1022.33 1022.44 1022.56 1022.73 1023.13 1023.16 1023.13 1023.15 1023.05 1023.03 1023.27 1023.11 1022.66 1022.28 1021.79 1021.25 1020.79 1020.16 1019.80 1019.70 1019.63 1019.19 1018.69 1018.37 1018.06 1017.55 1016.94 1016.01 1014.96 1014.17 1013.12 1012.24 1011.60 1010.53 1009.83 1009.39 1009.17 1008.31
1020.99 1021.22 1021.84 1022.26 1022.57 1022.78 1022.93 1022.93 1022.97 1023.30 1023.43 1023.46 1023.35 1023.28 1023.55 1023.67 1023.43 1022.96 1022.49 1021.94 1021.34 1021.02 1020.46 1020.01 1020.20 1020.06 1019.70 1019.45 1019.12 1018.61 1018.14 1017.99 1017.48 1016.70 1015.62 1014.58 1013.90 1013.64 1012.68 1012.11 1011.70 1011.32 1010.88
1020.98 1021.67 1021.94 1022.17 1022.77 1023.05 1023.08 1023.12 1023.37 1023.57 1023.73 1023.67 1023.79 1023.95 1024.19 1024.07 1023.78 1023.40 1022.92 1022.27 1021.56 1021.07 1020.71 1020.31 1020.51 1020.33 1020.21 1020.01 1019.88 1019.46 1019.12 1018.65 1018.42 1017.96 1017.05 1016.30 1015.69 1015.98 1014.90 1014.27 1013.77 1013.45 1013.32
1021.32 1021.80 1022.16 1022.49 1023.04 1023.15 1023.10 1023.31 1023.56 1023.80 1023.99 1023.88 1024.21 1024.52 1024.65 1024.68 1024.41 1023.83 1023.44 1022.86 1021.95 1021.30 1020.96 1020.80 1020.77 1020.75 1020.65 1020.49 1020.20 1020.21 1020.01 1019.61 1018.92 1018.63 1018.06 1018.09 1018.11 1017.76 1016.64 1016.02 1015.70 1015.13 1014.85
1021.07 1021.74 1022.37 1022.81 1023.20 1023.13 1023.36 1023.48 1023.64 1023.77 1024.05 1024.31 1024.48 1024.77 1025.03 1025.08 1024.84 1024.41 1024.01 1023.56 1022.63 1021.85 1021.52 1021.47 1021.48 1021.46 1021.20 1020.91 1020.55 1020.41 1020.51 1020.31 1019.87 1019.63 1019.68 1019.81 1019.39 1018.87 1018.96 1017.29 1017.02 1016.56 1016.49
1020.96 1021.81 1022.24 1022.56 1023.07 1023.56 1024.06 1023.85 1023.70 1023.99 1024.19 1024.46 1024.74 1024.91 1025.20 1025.26 1024.91 1024.81 1024.59 1024.32 1023.60 1023.04 1022.54 1022.48 1022.48 1022.47 1022.26 1021.87 1021.24 1020.94 1020.56 1020.58 1020.52 1020.59 1020.66 1020.56 1020.28 1019.63 1019.37 1018.54 1018.19 1018.42 1018.12
1021.30 1021.81 1022.07 1022.67 1023.29 1024.15 1024.26 1023.94 1024.00 1024.43 1024.63 1024.86 1025.12 1025.38 1025.44 1025.57 1025.24 1025.17 1025.16 1025.00 1024.71 1024.24 1023.98 1023.94 1023.99 1023.84 1023.62 1023.21 1022.46 1021.71 1021.31 1020.81 1020.81 1021.16 1020.93 1021.25 1020.74 1020.71 1020.40 1020.00 1019.62 1019.75 1019.46
1021.95 1022.28 1022.63 1023.28 1023.98 1024.52 1024.33 1024.45 1024.60 1025.05 1025.37 1025.64 1025.86 1026.02 1026.14 1026.06 1025.57 1025.34 1025.48 1025.68 1025.53 1025.16 1025.13 1025.14 1025.03 1024.93 1024.50 1024.04 1023.20 1022.06 1021.73 1021.86 1022.26 1022.40 1021.70 1021.57 1021.41 1021.56 1021.43 1021.18 1020.93 1020.88 1020.92
1022.15 1022.49 1023.03 1023.54 1024.17 1024.46 1024.65 1024.74 1024.96 1025.43 1025.78 1026.17 1026.51 1026.74 1026.85 1026.70 1026.37 1026.02 1025.99 1026.02 1026.03 1025.91 1025.77 1025.54 1025.62 1025.56 1024.99 1024.32 1023.64 1022.40 1021.82 1022.10 1022.59 1022.90 1022.89 1022.62 1022.25 1022.43 1022.34 1022.07 1021.83 1021.70 1021.54
1022.17 1022.67 1023.08 1023.43 1024.13 1024.65 1025.00 1025.19 1025.06 1025.48 1026.04 1026.61 1027.09 1027.07 1027.24 1027.08 1026.44 1026.06 1026.36 1026.45 1026.36 1026.21 1025.63 1025.29 1025.22 1025.25 1025.06 1024.58 1024.00 1023.24 1022.82 1022.70 1023.27 1024.13 1024.14 1023.88 1023.03 1022.84 1023.11 1023.18 1022.88 1022.75 1022.41
1022.09 1022.57 1023.09 1023.51 1024.02 1024.77 1025.05 1025.27 1025.22 1025.28 1025.77 1026.40 1027.01 1027.13 1026.94 1027.17 1026.80 1026.65 1026.69 1026.59 1026.63 1026.38 1026.10 1025.89 1026.07 1025.79 1025.55 1025.32 1024.93 1024.84 1024.64 1024.34 1024.51 1024.91 1024.90 1024.65 1023.85 1023.30 1023.29 1023.90 1023.60 1023.53 1023.22
Wind_Speed
4 4 3 4 4 4 4 4 4 4 5 6 5 5 6 6 6 4 3 14 15 19 22 22 22 22 23 24 24 24 24 21 24 23 23 23 23 23 24 22 21 21 22
3 3 4 4 5 4 4 4 5 5 5 5 6 6 6 6 6 6 4 5 13 15 16 18 19 21 23 23 24 24 25 24 22 25 25 24 25 25 24 24 24 23 22
3 3 4 5 5 4 5 5 5 6 6 6 7 7 7 9 8 7 5 5 6 9 12 19 23 24 26 27 26 25 24 26 25 23 25 25 26 27 26 26 25 24 24
4 4 5 6 4 4 4 5 5 5 5 6 6 6 7 7 7 9 7 5 3 3 6 20 25 30 28 27 27 28 28 26 27 26 24 27 27 27 28 27 27 28 26
4 4 5 5 5 4 5 5 6 5 7 6 9 9 6 7 8 7 7 7 8 6 6 15 21 25 28 29 30 30 31 29 29 28 28 25 29 29 29 30 29 28 28
5 5 5 5 4 4 5 5 6 6 6 8 10 8 10 6 4 9 8 6 8 8 9 12 11 12 27 27 28 31 30 30 30 30 29 27 26 30 30 30 32 32 30
5 6 4 4 5 5 5 6 6 8 5 9 5 6 5 7 9 11 7 8 12 12 7 9 8 9 10 25 25 29 30 30 29 29 29 29 24 25 27 29 31 31 31
5 7 5 5 5 4 6 6 7 4 4 7 7 5 6 5 12 9 8 8 12 11 12 12 13 14 11 10 17 26 30 30 26 23 26 29 26 20 24 30 29 30 31
6 6 6 5 5 4 5 5 5 7 5 5 7 4 5 4 11 4 9 10 13 12 12 12 13 12 12 11 15 19 31 28 25 23 21 20 19 19 21 26 24 25 29
7 6 5 5 5 4 5 5 5 3 4 5 4 7 5 5 5 8 5 10 14 13 13 10 10 9 11 10 18 25 31 29 25 17 20 22 19 19 17 22 25 26 24
6 6 5 5 5 4 5 5 4 4 4 4 4 5 5 4 4 5 10 13 10 10 9 10 7 8 10 11 11 20 33 32 29 23 15 15 19 19 15 17 20 23 21
5 5 5 4 5 5 4 3 3 5 6 4 4 5 4 3 6 5 8 12 13 10 11 5 7 7 9 10 17 26 35 33 32 29 26 22 12 11 11 10 15 20 20
4 5 4 5 4 4 4 3 3 5 3 4 5 5 3 4 4 5 6 8 9 10 5 3 7 7 8 9 13 25 34 34 33 33 30 30 27 26 24 11 7 16 18
6 6 5 5 4 5 3 3 4 3 4 3 6 5 4 4 5 5 5 8 9 5 7 9 4 9 8 9 18 26 17 32 34 34 33 31 31 33 29 31 24 14 4
6 5 5 6 5 4 4 4 5 4 4 4 5 4 5 6 5 5 5 5 5 5 6 4 5 9 8 9 16 13 15 32 33 34 33 34 33 33 33 33 31 27 20
6 5 6 6 4 5 5 5 5 4 5 4 4 5 6 6 6 5 6 5 5 4 4 5 5 5 8 8 12 12 16 21 34 33 34 34 36 34 34 35 34 32 31
6 6 6 5 5 5 4 4 5 5 5 5 6 7 8 8 6 6 6 6 4 4 4 1 4 6 6 8 9 10 10 12 12 30 33 36 35 34 35 34 34 34 33
6 6 5 6 5 4 5 5 6 5 5 6 7 8 8 7 8 8 6 9 6 3 3 3 4 4 6 5 8 9 9 8 10 23 30 34 35 32 33 34 33 32 32
6 6 6 6 5 4 5 5 6 5 6 6 6 7 8 8 9 8 8 8 7 6 3 2 3 2 3 4 4 6 8 7 8 22 24 27 27 28 33 32 32 32 30
8 7 7 6 5 5 5 4 5 5 6 5 6 6 5 6 6 8 8 9 9 5 6 5 5 5 6 5 2 2 3 5 6 10 16 18 21 26 26 31 31 32 29
7 8 9 8 9 7 5 5 6 5 5 6 6 6 5 7 15 15 7 9 10 7 6 7 6 6 6 5 8 6 1 2 5 6 6 8 8 10 14 22 25 29 29
8 3 7 9 10 6 8 12 8 6 7 6 5 6 5 9 9 14 17 19 16 9 9 7 6 6 8 8 8 4 6 4 3 7 4 6 7 10 10 11 27 26 27
7 7 9 10 8 4 11 10 12 6 5 5 6 6 6 6 9 5 11 14 16 18 16 8 8 7 6 8 9 5 3 5 4 6 4 5 6 7 7 11 23 24 23
7 7 7 8 8 5 10 11 11 6 6 6 5 4 4 4 5 6 5 4 4 3 4 4 3 2 6 8 8 7 4 6 5 6 9 4 3 6 6 6 21 21 22
6 7 6 7 8 5 8 4 3 6 6 6 4 4 4 4 8 7 3 4 4 4 6 11 12 15 16 20 18 7 9 5 3 3 9 4 3 2 4 3 6 19 20
7 6 6 6 10 5 6 3 1 4 6 6 7 6 11 7 11 9 5 3 3 2 3 5 4 6 8 11 19 11 7 7 4 4 4 5 4 2 3 3 2 3 6
Wind_Direction
22 56 49 44 48 4 16 343 13 333 338 327 323 308 312 302 297 296 299 298 302 314 311 309 304 298 294 292 293 291 290 281 255 235 226 218 214 213 209 205 203 198 200
24 37 52 45 42 2 350 352 356 351 329 342 328 323 316 306 299 297 299 305 297 290 293 300 305 305 300 294 287 286 288 283 280 255 236 223 216 212 210 205 205 205 199
26 19 56 51 27 336 1 11 1 351 347 335 320 332 329 325 309 292 285 275 282 303 349 359 358 346 333 318 294 283 276 279 277 271 252 234 221 215 210 206 203 203 201
21 41 56 56 338 358 25 12 8 348 338 323 335 329 310 301 313 328 289 273 298 322 8 5 351 345 327 319 306 292 279 273 270 267 261 248 229 218 212 206 202 201 204
45 29 72 58 330 15 32 13 0 353 331 342 329 315 313 309 287 284 313 12 344 24 21 7 350 337 333 323 316 305 291 270 266 264 261 255 242 223 214 206 202 202 202
51 21 71 58 1 35 25 17 359 354 322 353 321 316 308 281 315 18 342 340 24 31 19 10 341 330 332 329 326 331 301 271 263 259 260 257 250 238 220 212 204 201 201
47 49 40 52 26 28 38 15 15 347 351 2 338 322 301 328 47 353 345 19 6 6 21 1 332 327 320 334 336 333 331 337 280 254 255 259 253 249 227 219 215 204 200
56 77 45 44 34 8 45 20 26 344 351 26 347 311 349 313 11 331 359 19 354 357 343 351 340 334 343 332 335 343 340 330 317 303 263 253 257 241 234 224 219 214 203
76 62 58 47 28 34 45 31 28 14 353 13 18 24 346 336 336 337 331 3 358 347 337 335 335 328 349 340 346 348 345 336 319 296 289 274 273 257 225 218 210 223 213
77 67 60 53 49 41 48 29 27 14 17 13 4 24 11 331 335 318 350 323 350 330 328 330 323 347 358 350 357 356 354 350 340 300 289 288 265 262 244 218 219 223 222
95 84 69 64 57 52 49 60 5 34 58 40 26 359 2 325 302 326 312 327 325 322 329 323 11 360 2 5 2 4 6 4 2 6 334 295 281 264 266 230 211 211 217
127 86 89 75 72 47 42 30 14 44 73 67 36 8 4 345 322 324 308 314 318 327 319 359 14 15 15 8 9 14 16 14 12 23 26 24 12 337 266 273 213 218 209
117 96 78 62 57 63 38 10 57 45 55 91 82 14 343 335 328 314 302 305 314 318 329 23 20 15 23 19 14 21 23 21 21 26 28 35 39 42 42 32 224 227 197
96 98 94 88 66 56 32 327 71 23 26 49 84 29 355 354 337 313 304 314 317 328 335 336 17 11 24 26 27 23 16 27 27 30 30 38 40 45 48 46 43 64 75
110 110 98 94 79 66 37 355 80 24 20 26 72 43 17 2 337 332 323 305 310 318 325 17 4 11 357 41 35 29 26 28 33 35 33 39 43 45 48 50 48 46 59
95 115 99 90 91 69 43 44 65 32 36 23 51 27 38 6 350 351 336 314 311 319 296 10 23 8 11 26 21 35 30 25 33 36 36 39 43 44 50 50 49 46 47
125 110 117 118 96 91 68 69 89 57 45 46 43 33 28 22 1 349 342 337 329 326 300 73 28 15 29 30 24 18 34 27 23 37 38 40 40 41 46 51 52 49 48
116 116 123 108 106 106 95 79 70 70 52 51 47 40 30 16 12 357 352 346 341 330 310 24 22 13 25 44 34 31 24 38 37 33 43 39 41 38 45 47 50 56 52
128 125 97 92 103 104 89 94 97 81 71 52 66 57 39 20 17 4 3 352 341 360 359 27 36 360 48 3 53 39 27 25 38 44 39 43 41 42 42 48 47 47 54
142 124 127 127 120 75 90 83 83 100 98 80 86 68 67 36 29 18 16 0 346 13 21 30 32 15 5 1 1 9 41 32 37 43 53 47 46 44 47 46 47 46 47
133 151 157 146 116 86 38 3 78 77 71 82 70 81 56 61 55 48 38 18 10 23 24 34 28 27 11 354 6 350 360 126 59 30 51 47 42 41 39 44 45 45 43
71 62 97 84 75 82 77 52 88 61 40 57 63 62 54 25 76 60 53 47 45 33 41 40 28 22 6 350 337 7 8 7 30 21 342 81 54 49 42 42 50 50 51
108 91 90 93 94 99 92 85 87 78 76 60 48 41 48 27 13 51 62 56 49 54 55 52 51 29 4 348 329 329 47 58 52 360 339 34 64 66 46 50 48 51 53
132 120 123 126 117 107 111 110 106 98 80 63 52 64 67 16 19 36 46 59 69 52 69 70 66 36 21 0 353 333 1 123 72 38 5 54 12 71 54 32 50 46 48
145 140 145 133 124 121 142 135 139 122 114 104 72 67 58 28 38 69 78 52 14 357 37 54 57 51 39 33 31 16 17 22 81 6 19 334 341 98 77 28 38 45 40
134 127 134 127 136 131 163 180 354 153 147 140 136 94 63 62 55 52 26 30 46 329 15 21 10 20 50 34 38 36 18 48 19 16 345 350 342 317 155 53 38 49 22